Temp_Advection
nan nan nan nan nan nan nan nan nan nan nan nan nan nan nan nan nan nan nan nan nan nan nan nan nan nan nan nan nan nan nan nan nan
nan 0 0 0 0 0 0 -0 -0 -0 -0 -0 -0 -0 -0 -0 0 0 0 -0 -0 -0 -0 -0 -0 -0 0 0 0 0 -0 -0 nan
nan -0 0 0 -0 -0 -0 0 -0 0 -0 -0 -0 -0 -0 -0 0 0 0 -0 -0 -0 -0 -0 -0 -0 -0 -0 0 0 -0 -0 nan
nan 0 -0 0 -0 -0 -0 0 -0 -0 -0 -0 -0 -0 -0 -0 0 -0 -0 -0 -0 -0 -0 -0 -0 0 -0 0 0 -0 -0 0 nan
nan -0 -0 0 0 0 -0 -0 -0 -0 -0 -0 -0 -0 -0 -0 -0 -0 -0 -0 -0 -0 -0 -0 -0 -0 -0 -0 -0 0 0 0 nan
nan -0 -0 0 0 0 -0 -0 -0 -0 -0 -0 -0 -0 -0 -0 -0 -0 -0 0 -0 -0 -0 -0 -0 -0 -0 -0 -0 -0 -0 -0 nan
nan -0 0 0 0 0 0 0 -0 -0 -0 -0 -0 0 0 -0 -0 -0 -0 0 0 -0 -0 -0 -0 0 -0 -0 -0 -0 -0 -0 nan
nan 0 0 0 0 -0 -0 -0 0 -0 0 0 -0 -0 0 0 -0 -0 -0 0 0 0 -0 -0 -0 0 0 -0 -0 -0 -0 -0 nan
nan 0 0 0 0 -0 0 -0 -0 -0 -0 -0 0 -0 -0 0 0 -0 -0 0 0 0 -0 -0 -0 -0 0 -0 -0 -0 -0 -0 nan
nan 0 0 -0 -0 0 0 0 -0 -0 -0 -0 -0 0 0 0 0 -0 -0 0 0 0 -0 -0 -0 -0 -0 -0 -0 -0 0 -0 nan
nan 0 -0 -0 0 0 0 0 -0 -0 0 -0 -0 0 0 -0 0 0 -0 -0 0 -0 -0 -0 -0 -0 -0 -0 -0 -0 -0 -0 nan
nan -0 -0 0 0 0 0 -0 -0 -0 0 0 -0 -0 0 0 0 0 0 -0 -0 -0 -0 -0 -0 -0 -0 -0 -0 -0 -0 -0 nan
nan 0 0 0 0 0 -0 -0 -0 -0 -0 0 0 -0 0 0 0 0 0 0 -0 -1 -0 -0 -0 -0 -0 -0 -0 -0 -0 -0 nan
nan 0 0 0 0 -0 -0 0 0 -0 -0 -0 0 0 0 0 0 0 -0 -0 0 0 -0 -0 -0 -0 -0 -0 -0 -0 -0 -0 nan
nan 0 0 0 0 -0 0 0 0 -0 -0 -0 -0 -0 0 0 0 0 0 -0 -1 -0 -0 -0 -0 -1 -1 -1 -0 -0 -0 -0 nan
nan 0 0 0 0 0 0 0 -0 -0 -0 -0 -0 -0 -0 0 0 0 0 0 -0 -0 -0 -1 -1 -0 -0 -1 -1 -0 -0 -0 nan
nan 0 0 0 0 0 0 0 -0 -0 -0 -0 -0 -0 0 0 0 0 0 0 0 0 -0 -1 -0 -0 -0 -1 -1 -1 -0 -0 nan
nan 0 0 0 0 0 0 0 0 -0 -0 -0 -0 -0 -0 0 -0 0 0 0 0 -0 -0 -1 -0 -0 -0 -0 -1 -1 -1 -1 nan
nan 0 0 0 0 0 0 0 0 0 -0 -0 -0 -0 0 -0 -1 0 0 0 0 0 -1 -1 -1 -1 -0 -0 -1 -1 -2 -0 nan
nan nan nan nan nan nan nan nan nan nan nan nan nan nan nan nan nan nan nan nan nan nan nan nan nan nan nan nan nan nan nan nan nan
Wind_Speed
7 7 7 8 8 8 7 5 3 2 1 2 2 4 5 7 5 5 8 8 10 10 9 6 5 6 5 7 13 10 10 9 10
6 6 5 6 6 6 6 6 5 4 5 5 5 6 6 10 5 6 7 8 10 10 9 7 7 8 8 8 9 10 9 9 10
4 2 3 3 4 5 6 6 6 5 5 5 5 6 7 6 7 6 7 11 10 10 9 9 10 11 11 9 9 10 10 10 9
7 4 1 1 3 4 4 4 4 3 4 5 6 7 8 7 5 4 6 9 7 9 8 9 10 10 10 9 11 13 13 14 13
10 6 4 2 3 3 2 2 3 4 6 8 7 7 7 6 5 4 9 8 8 10 11 11 11 12 12 13 13 14 13 14 16
6 7 4 4 2 1 1 2 4 6 7 7 7 7 4 3 4 7 9 10 10 11 12 12 12 13 14 14 13 13 14 14 15
10 9 6 4 3 2 2 3 5 6 5 9 8 5 6 4 5 11 10 10 10 13 13 14 14 14 14 15 15 15 15 15 15
10 6 5 2 3 2 3 3 4 9 8 11 9 11 9 6 7 14 12 12 13 12 15 15 15 14 14 15 16 17 17 16 17
9 7 6 7 5 5 4 5 9 11 12 11 11 13 13 10 11 16 14 13 13 12 16 15 15 14 14 15 16 16 16 17 18
10 10 9 7 5 5 6 8 10 12 11 14 14 13 11 11 11 14 14 13 13 13 15 14 14 14 14 16 17 18 18 19 20
12 12 6 4 6 7 9 11 11 11 13 14 14 14 11 12 11 9 15 13 12 14 14 14 14 14 15 16 18 19 20 21 22
12 10 8 6 7 9 11 11 10 11 12 11 14 12 11 12 10 10 9 12 11 12 13 15 16 17 17 17 19 20 22 23 25
14 12 10 9 9 10 10 8 9 10 11 12 10 13 13 10 10 11 9 11 11 14 14 16 19 20 20 21 23 24 24 24 25
17 15 14 11 9 8 7 6 7 9 11 12 11 13 14 9 10 8 11 12 13 14 17 18 19 19 20 22 23 24 24 24 25
19 18 15 13 10 8 6 6 7 9 11 11 10 13 10 9 8 8 10 11 15 17 19 20 19 23 25 24 24 24 24 25 26
23 19 16 13 11 8 6 5 7 10 11 11 10 10 12 10 9 9 7 14 15 17 16 17 23 24 24 24 25 23 25 25 26
23 20 18 15 12 9 6 6 8 10 11 10 9 3 6 7 7 8 17 12 15 13 20 22 23 22 24 24 23 26 26 27 28
25 22 18 16 12 9 6 6 7 9 11 10 4 4 3 14 9 12 11 15 15 21 25 25 24 23 27 22 25 27 29 29 29
26 22 18 16 13 9 7 7 8 8 9 11 9 6 9 4 9 5 12 16 20 21 24 26 25 28 23 24 28 27 29 31 32
25 23 20 16 14 9 7 8 8 8 9 10 10 9 9 9 11 20 13 19 20 22 22 21 27 25 22 26 24 19 24 26 29
Wind_Direction
95 83 81 80 81 90 105 119 130 124 81 33 10 15 26 44 15 355 341 4 358 359 360 348 315 298 256 259 278 293 303 269 262
91 79 83 87 91 96 98 99 95 89 78 68 53 39 27 41 12 355 342 314 344 348 352 352 344 331 305 280 283 277 276 287 267
129 66 86 91 90 95 101 101 95 83 66 43 20 8 359 19 335 327 333 308 329 324 329 330 320 314 305 305 294 285 289 291 281
155 203 239 142 116 117 109 100 81 43 22 1 351 347 348 31 318 334 293 315 325 320 323 325 321 306 316 326 294 283 278 278 279
174 195 226 202 155 135 113 72 19 358 346 338 332 340 18 14 342 339 299 315 310 309 309 319 311 309 310 308 303 297 300 289 278
173 191 222 199 195 184 6 352 352 348 342 339 337 359 347 352 330 279 307 309 309 305 309 303 303 303 305 305 303 300 296 293 290
186 216 218 216 222 260 298 334 346 357 344 327 345 324 322 330 307 284 304 299 295 294 297 292 295 295 298 298 296 295 294 292 288
204 206 207 259 259 313 313 328 304 304 304 308 308 315 318 307 301 289 298 294 292 291 282 288 287 289 292 291 291 292 293 292 291
180 182 184 196 185 246 278 290 295 306 311 311 309 313 312 296 292 292 298 291 281 272 280 286 289 291 289 289 294 295 294 293 291
186 182 184 217 231 261 273 282 299 306 311 312 311 309 305 298 294 284 295 289 282 276 279 289 293 295 294 293 294 295 294 291 289
186 195 208 235 262 261 261 283 297 302 311 309 309 307 304 300 293 269 290 284 277 279 286 289 293 297 299 299 300 300 298 297 294
221 202 214 249 243 255 269 285 293 310 319 319 313 310 304 295 288 283 255 287 276 279 285 291 295 298 298 301 304 302 300 298 296
200 208 216 232 238 242 264 281 307 322 326 324 309 311 309 295 279 275 272 269 278 290 288 295 299 297 297 303 304 302 300 297 295
206 211 218 225 242 242 255 286 313 322 328 327 317 305 305 285 271 265 271 281 281 287 296 303 305 305 301 302 302 301 300 297 294
213 213 219 226 227 228 256 293 315 325 331 330 318 312 306 286 275 264 284 288 291 290 295 303 308 310 309 309 306 304 301 300 298
215 215 221 232 211 226 250 288 313 325 334 342 334 322 321 308 276 277 282 292 304 298 299 301 301 305 304 306 303 301 300 297 297
212 215 220 224 209 223 248 288 313 322 340 352 359 327 280 318 316 267 294 282 285 287 291 295 302 301 304 304 300 299 297 298 298
210 211 214 213 210 223 250 287 313 325 332 347 356 322 294 294 304 279 276 291 287 291 299 304 305 304 306 301 300 301 300 302 303
208 211 208 205 216 225 255 287 308 322 321 333 326 300 274 303 305 263 293 291 285 302 298 299 301 305 301 298 301 299 299 300 306
205 218 206 204 215 231 259 287 305 316 315 318 313 306 307 291 269 293 293 285 290 287 295 296 299 302 296 296 294 293 295 302 305
Height
1517 1518 1518 1519 1519 1519 1520 1521 1522 1522 1523 1523 1523 1523 1523 1524 1526 1527 1526 1524 1523 1522 1521 1520 1520 1521 1521 1522 1523 1523 1522 1522 1522
1518 1519 1520 1520 1520 1521 1521 1522 1523 1523 1523 1524 1524 1524 1524 1524 1527 1527 1526 1524 1523 1522 1522 1520 1520 1520 1521 1519 1520 1521 1521 1520 1520
1519 1520 1520 1522 1522 1522 1523 1523 1523 1524 1524 1524 1524 1524 1525 1524 1526 1526 1526 1524 1523 1522 1521 1520 1521 1520 1520 1519 1519 1520 1520 1519 1519
1520 1521 1521 1522 1523 1523 1524 1524 1524 1525 1525 1525 1524 1524 1524 1524 1526 1525 1525 1523 1522 1521 1520 1519 1519 1519 1519 1517 1517 1518 1518 1517 1517
1520 1521 1522 1523 1523 1524 1525 1525 1525 1525 1525 1525 1524 1524 1524 1525 1526 1525 1522 1522 1521 1520 1518 1519 1518 1518 1517 1516 1515 1516 1515 1515 1515
1521 1521 1522 1523 1523 1524 1525 1525 1525 1525 1525 1524 1524 1524 1524 1525 1524 1522 1521 1521 1519 1518 1518 1517 1516 1516 1515 1514 1513 1513 1513 1513 1512
1522 1521 1522 1523 1523 1524 1525 1525 1525 1525 1526 1526 1523 1525 1522 1523 1522 1519 1519 1519 1518 1516 1515 1515 1515 1514 1513 1512 1511 1510 1510 1510 1509
1519 1520 1521 1522 1524 1523 1525 1525 1525 1525 1524 1524 1523 1522 1521 1521 1519 1516 1517 1516 1516 1515 1511 1512 1512 1511 1511 1509 1508 1508 1507 1507 1506
1519 1521 1522 1523 1524 1523 1524 1524 1524 1524 1522 1522 1521 1519 1518 1518 1517 1513 1514 1512 1513 1511 1508 1509 1510 1509 1508 1506 1506 1506 1505 1504 1503
1519 1520 1520 1520 1522 1523 1523 1523 1523 1522 1521 1519 1519 1517 1516 1515 1514 1511 1510 1509 1509 1508 1506 1506 1507 1506 1505 1504 1503 1503 1502 1501 1499
1518 1517 1518 1519 1520 1521 1522 1521 1520 1519 1519 1518 1516 1515 1514 1512 1511 1511 1506 1507 1506 1505 1505 1504 1504 1503 1502 1501 1500 1499 1498 1497 1496
1514 1515 1516 1517 1518 1519 1520 1519 1519 1517 1516 1515 1513 1512 1511 1509 1508 1508 1506 1504 1504 1503 1503 1503 1502 1501 1499 1498 1497 1496 1495 1493 1492
1511 1512 1514 1514 1516 1516 1517 1518 1517 1516 1514 1512 1511 1510 1508 1507 1505 1505 1504 1502 1502 1500 1501 1500 1499 1497 1496 1494 1493 1491 1490 1488 1486
1506 1509 1511 1512 1513 1514 1515 1515 1515 1514 1512 1510 1509 1507 1505 1504 1503 1503 1501 1500 1500 1499 1497 1497 1495 1493 1492 1490 1488 1486 1484 1482 1481
1503 1506 1508 1510 1511 1512 1513 1512 1512 1512 1510 1509 1507 1504 1503 1502 1501 1501 1500 1498 1497 1496 1495 1493 1491 1488 1486 1484 1482 1481 1479 1477 1475
1501 1503 1506 1508 1509 1510 1510 1510 1510 1509 1508 1506 1505 1502 1501 1501 1500 1499 1499 1497 1494 1493 1492 1490 1487 1485 1482 1480 1478 1476 1474 1472 1470
1498 1501 1503 1505 1507 1508 1508 1508 1507 1507 1506 1505 1503 1504 1503 1499 1498 1498 1496 1495 1493 1490 1489 1486 1483 1480 1477 1474 1472 1470 1468 1466 1464
1494 1497 1500 1503 1505 1506 1506 1506 1506 1504 1504 1503 1504 1503 1501 1498 1496 1495 1495 1492 1490 1487 1484 1481 1478 1475 1472 1469 1466 1463 1460 1458 1457
1491 1494 1498 1500 1502 1503 1504 1504 1504 1504 1502 1500 1500 1500 1499 1498 1495 1494 1492 1490 1487 1484 1480 1477 1474 1470 1467 1464 1461 1458 1455 1452 1449
1487 1491 1494 1496 1499 1500 1501 1502 1502 1502 1501 1499 1497 1497 1495 1494 1494 1488 1487 1485 1483 1479 1476 1471 1467 1464 1462 1459 1456 1453 1449 1446 1443